SL-8 DEB, 45514

Orbit data source: Space-Track

SL-8 DEB, 45514 is space debris in LEO originally from a launch on Mon, 17 Mar 1980 UTC launched from the Plesetsk Missile And Space Complex (PKMTR). Debris objects in space refer to the collection of defunct objects orbiting the Earth. Examples of debris include non-operational satellites, rocket bodies, and fragments generated from explosions, collisions, or faulty payload assembly.

Loading next visibility...
SL-8 DEB details
Identifier
45514, 1980-022D
Orbit
LEO
Last TLE update3 days ago
Origin
Flag of CISVMF RF (CIS)
ManufacturerUnknown
MissionSpacecraft
Bus & MotorUnknown
MassUnknown
Launch date (UTC)
1980-03-17 (45 years ago)
Launch vehicleUnknown
Launch site
Plesetsk Missile And Space Complex (PKMTR)
Object type
Payload
Rocket body
Debris
Shape & HBRUnknown
Radar Cross SectionSmall (<0.1 m²)

Expand to show TLE details & history

TLE from 3 days ago
0 SL-8 DEB
1 45514U 80022D   24336.84989113  .00001933  00000-0  18429-2 0  9994
2 45514  82.9419 287.9188 0033160  10.3841 349.7995 13.79941301534733
Epoch: 2024-12-01T20:23Z
Definitive object data (Epoch: 2024-12-01T20:23:50.593Z)
Latitude-0.00005°
Longitude-89.2242°
Altitude943.037 km
Speed7.392 km/s
True Right ascension19h 11m 40s
True Declination0° 00' 00"
Sunlit
Object was in daylight at TLE epoch
Visualization TLE readout
Latitude34.60305°
Longitude83.98355°
Altitude987.795 km
Speed7.351 km/s
Apparent Right ascension03h 38m 19s
Apparent Declination2° 35' 17"
Sunlit
Object is in full shadow
Visualization observer readout
Local Sidereal Time07:54:35
Azimuth254.704° W
Elevation21.35°
Doppler factor1
Orbital elements
Apogee altitude985.574 km
Perigee altitude936.9 km
Semi-major axis7,339.374 km
Eccentricity0.003316
Inclination82.9419°
RAAN287.9188°
Arg. of periapsis10.3841°
True anomaly349.73193°
Mean anomaly349.7995°
Eccentric anomaly349.76574°
Mean motion3.45187 °/min
BSTAR0.0018429
Orbital period104.29 mins
Loading maneuver chart data...
Loading historical data...
Loading historical data...
Loading historical data...
Loading historical data...
Loading historical data...
Loading historical data...
Loading historical data...
Other satellites on launch #22 in the year 1980 (1980-03-17 UTC)

SL-8 DEB Visibility forecast

Observer location: undefined°, undefined

Span
Click to sort rows by Start time (UTC) header in descending order
Start Az.
Max El. time (UTC)
Max El. Az.
Max El.
End time (UTC)
End Az.
4 mins2024-12-04 19:55:12.546Z93.8° ESE2024-12-04 19:56:12.546Z82.884° E14.063°2024-12-04 19:59:12.546Z52.038° ENE
10 mins2024-12-04 21:36:12.546Z194.388° SSW2024-12-04 21:41:12.546Z316.484° NNW43.309°2024-12-04 21:46:12.546Z2.828° NNE
11 mins2024-12-05 08:31:12.546Z354.832° N2024-12-05 08:36:12.546Z137.955° SSE44.696°2024-12-05 08:42:12.546Z172.631° S
|